Stations météo

réclame
Mon MeteoGroup
Malilla, Suède (2565): Température de l'air & dewpoint: 16.10.2018 17:00:00 - 22.10.2018 17:00:00 (CEST)Malilla, Suède (2565): Vitesse du vent & gusts: 16.10.2018 17:00:00 - 22.10.2018 17:00:00 (CEST)Malilla, Suède (2565): Direction du vent: 16.10.2018 17:00:00 - 22.10.2018 17:00:00 (CEST)Malilla, Suède (2565): reduced air pressure: 16.10.2018 17:00:00 - 22.10.2018 17:00:00 (CEST)Malilla, Suède (2565): visibility: 16.10.2018 17:00:00 - 22.10.2018 17:00:00 (CEST)Malilla, Suède (2565): Quantités de précipitations: 16.10.2018 17:00:00 - 22.10.2018 17:00:00 (CEST)
Date & Time tt [°C] td [°C] ff [km/h] ff [knt] fx [km/h] fx [knt] dd ppp [hPa] vv [km] rr [mm]
22.10.2018 17:00:00 - - - - - - - - - -
22.10.2018 16:00:00 11,1 0,2 27 15 46 25 SW 1017,6 26 0,0
22.10.2018 15:00:00 11,5 0,0 29 15 45 24 WSW 1017,4 41 0,0
22.10.2018 14:00:00 11,6 0,7 24 13 48 26 WSW 1017,5 33 0,0
22.10.2018 13:00:00 11,1 0,5 29 15 48 26 WSW 1017,2 16 0,0
22.10.2018 12:00:00 10,9 2,0 27 14 43 23 WSW 1017,5 18 0,0
22.10.2018 11:00:00 10,2 3,7 23 12 43 23 WSW 1017,2 17 0,0
22.10.2018 10:00:00 9,4 4,4 23 12 43 23 SW 1017,1 14 0,0
22.10.2018 09:00:00 8,9 4,7 17 9 41 22 WSW 1017,0 16 0,0
22.10.2018 08:00:00 9,1 4,5 20 11 41 22 SW 1016,5 16 0,0
22.10.2018 07:00:00 9,7 5,7 23 12 38 21 SW 1016,2 16 0,0
22.10.2018 06:00:00 10,6 5,8 23 13 41 22 SW 1015,7 17 0,0
22.10.2018 05:00:00 12,2 8,3 17 9 41 22 SW 1015,4 39 0,0
22.10.2018 04:00:00 13,3 9,2 26 14 39 21 SW 1014,9 37 0,0
22.10.2018 03:00:00 13,2 11,1 18 10 29 16 SSW 1014,7 21 0,0
22.10.2018 02:00:00 12,8 11,0 16 8 41 22 SSW 1015,2 25 0,0
22.10.2018 01:00:00 12,9 11,1 19 11 41 22 SSW 1015,6 9 0,0
22.10.2018 00:00:00 13,1 10,6 20 11 36 20 SSW 1016,1 20 0,0
21.10.2018 23:00:00 12,7 10,4 19 10 36 20 S 1016,8 15 0,0
21.10.2018 22:00:00 12,4 10,3 21 11 33 18 SSW 1017,5 21 0,0
21.10.2018 21:00:00 12,1 10,2 15 8 28 15 S 1018,1 20 0,0
21.10.2018 20:00:00 12,1 10,0 14 7 28 15 SSW 1019,0 21 0,0
21.10.2018 19:00:00 12,1 9,8 16 9 27 14 S 1019,6 17 0,0
21.10.2018 18:00:00 11,8 9,5 16 9 31 17 SSW 1019,8 19 0,0
21.10.2018 17:00:00 11,5 9,4 15 8 33 18 SSW 1020,2 18 0,0
21.10.2018 16:00:00 11,4 9,1 16 9 33 18 SSW 1021,0 18 0,0
21.10.2018 15:00:00 11,8 9,0 15 8 30 16 SSW 1021,4 16 0,0
21.10.2018 14:00:00 11,7 8,5 13 7 29 15 SSW 1021,8 19 0,0
21.10.2018 13:00:00 11,4 7,7 17 9 26 14 SSW 1022,6 17 0,0
21.10.2018 12:00:00 10,4 7,1 14 7 21 11 SSW 1023,1 17 0,0
21.10.2018 11:00:00 8,5 8,4 9 5 14 8 S 1023,7 16 0,0
21.10.2018 10:00:00 5,0 4,9 3 2 6 3 S 1024,2 10 0,0
21.10.2018 09:00:00 1,5 1,4 3 2 6 3 S 1024,6 3,0 0,0
21.10.2018 08:00:00 0,3 0,2 0 0 6 3 N 1024,3 0,2 0,0
21.10.2018 07:00:00 0,5 0,4 4 2 6 4 ESE 1024,8 0,4 0,0
21.10.2018 06:00:00 0,2 0,1 4 2 7 4 SE 1025,2 0,3 0,1
21.10.2018 05:00:00 -1,0 -1,3 4 2 8 4 S 1025,2 1,1 0,0
21.10.2018 04:00:00 -1,2 -1,5 4 2 8 4 SSW 1025,3 0,3 0,0
21.10.2018 03:00:00 -1,2 -1,5 3 2 4 2 SE 1025,6 0,5 0,0
21.10.2018 02:00:00 -1,0 -1,3 2 1 6 3 SSE 1025,4 0,3 0,0
21.10.2018 01:00:00 -0,7 -1,0 3 2 6 3 SSW 1025,5 0,3 0,0
21.10.2018 00:00:00 -0,4 -0,7 0 0 5 3 N 1025,5 0,3 0,0
20.10.2018 23:00:00 -0,1 -0,5 2 1 4 2 SSW 1025,4 0,3 0,0
20.10.2018 22:00:00 0,6 0,2 0 0 6 3 N 1025,4 1,3 0,0
20.10.2018 21:00:00 1,1 0,7 2 1 6 3 S 1025,1 9 0,0
20.10.2018 20:00:00 2,1 1,5 3 2 6 3 S 1024,5 24 0,0
20.10.2018 19:00:00 3,9 3,2 3 2 16 9 SW 1024,1 26 0,0
20.10.2018 18:00:00 7,1 5,4 4 2 19 10 WSW 1023,8 28 0,0
20.10.2018 17:00:00 10,5 6,3 11 6 19 10 WSW 1023,0 30 0,0
20.10.2018 16:00:00 10,9 5,8 12 6 19 10 SW 1022,8 38 0,0
20.10.2018 15:00:00 11,3 5,6 9 5 23 12 WSW 1022,8 50 0,0
20.10.2018 14:00:00 11,3 5,4 14 8 23 12 WSW 1022,8 41 0,0
20.10.2018 13:00:00 10,1 6,3 9 5 19 11 W 1022,7 41 0,0
20.10.2018 12:00:00 9,2 6,3 11 6 17 9 WSW 1022,9 48 0,0
20.10.2018 11:00:00 7,7 5,8 9 5 15 8 WSW 1022,9 42 0,0
20.10.2018 10:00:00 6,2 5,2 7 4 15 8 SW 1022,6 18 0,1
20.10.2018 09:00:00 4,1 3,7 8 4 12 6 SW 1022,4 26 0,0
20.10.2018 08:00:00 3,9 3,3 8 5 11 6 SW 1022,2 16 0,0
20.10.2018 07:00:00 1,3 0,9 4 2 6 3 SSW 1022,1 38 0,0
20.10.2018 06:00:00 0,5 0,1 2 1 5 3 S 1021,9 45 0,0
20.10.2018 05:00:00 0,6 0,2 0 0 8 4 N 1021,9 45 0,0
20.10.2018 04:00:00 0,7 0,1 3 1 8 4 S 1022,3 46 0,0
20.10.2018 03:00:00 1,5 0,9 5 3 12 7 SSW 1022,4 33 0,0
20.10.2018 02:00:00 0,9 0,3 3 1 12 7 SSW 1022,6 16 0,0
20.10.2018 01:00:00 0,3 -0,3 0 0 6 3 N 1022,7 18 0,0
20.10.2018 00:00:00 0,2 -0,4 3 2 6 4 S 1023,1 13 0,0
19.10.2018 23:00:00 -0,7 -1,3 0 0 6 4 N 1023,4 14 0,0
19.10.2018 22:00:00 -1,3 -2,0 2 1 4 2 S 1023,5 13 0,0
19.10.2018 21:00:00 -0,4 -1,2 4 2 4 2 SW 1023,4 20 0,0
19.10.2018 20:00:00 1,1 0,1 2 1 4 2 SW 1023,3 32 0,0
19.10.2018 19:00:00 2,8 1,0 0 0 9 5 N 1023,3 50 0,0
19.10.2018 18:00:00 6,1 2,0 0 0 10 5 N 1023,1 50 0,0
19.10.2018 17:00:00 11,6 1,8 5 3 - - WSW 1022,8 50 0,0
19.10.2018 16:00:00 11,9 0,6 6 4 - - SSW 1023,1 50 -
19.10.2018 15:00:00 - - - - - - - - - -
19.10.2018 14:00:00 11,8 -0,1 - - 16 9 - 1023,9 - 0,0
19.10.2018 13:00:00 11,0 1,8 8 5 16 9 SW 1024,3 18 0,0
19.10.2018 12:00:00 8,9 3,7 6 3 11 6 SSW 1024,7 20 0,0
19.10.2018 11:00:00 4,7 2,2 8 4 11 6 SW 1025,0 50 0,0
19.10.2018 10:00:00 1,6 0,4 5 3 11 6 SSW 1025,1 16 0,0
19.10.2018 09:00:00 0,1 -0,5 8 4 10 6 SW 1025,0 16 0,0
19.10.2018 08:00:00 -1,4 -1,8 3 2 6 3 SSW 1024,8 14 0,0
19.10.2018 07:00:00 -2,0 -2,6 0 0 8 5 N 1024,6 14 0,0
19.10.2018 06:00:00 -1,7 -2,3 4 2 8 5 WSW 1024,4 13 0,0
19.10.2018 05:00:00 -2,2 -2,6 4 2 6 3 SW 1024,5 15 0,0
19.10.2018 04:00:00 -2,0 -2,4 0 0 5 3 N 1024,3 11 0,0
19.10.2018 03:00:00 -1,6 -2,2 0 0 8 4 N 1024,0 13 0,0
19.10.2018 02:00:00 -0,8 -1,5 4 2 13 7 W 1023,9 12 0,0
19.10.2018 01:00:00 1,0 0,1 5 3 13 7 SSW 1024,1 11 0,0
19.10.2018 00:00:00 1,8 0,8 10 5 13 7 SW 1023,8 15 0,0
18.10.2018 23:00:00 1,1 0,4 7 4 11 6 WSW 1023,6 13 0,0
18.10.2018 22:00:00 1,5 0,5 3 1 11 6 SSW 1023,3 17 0,0
18.10.2018 21:00:00 3,1 1,5 8 4 11 6 SW 1022,8 14 0,0
18.10.2018 20:00:00 3,7 1,6 0 0 13 7 N 1022,2 16 0,0
18.10.2018 19:00:00 7,1 1,8 5 3 16 9 NW 1021,5 16 0,0
18.10.2018 18:00:00 10,4 1,7 7 4 18 10 WNW 1020,8 18 0,0
18.10.2018 17:00:00 12,8 1,2 8 5 25 14 WNW 1020,0 18 0,0
18.10.2018 16:00:00 14,1 0,7 14 8 27 15 W 1019,3 19 0,0
18.10.2018 15:00:00 15,0 1,9 11 6 32 18 W 1018,8 18 0,0
18.10.2018 14:00:00 14,8 5,6 14 8 32 18 W 1018,4 20 0,0
18.10.2018 13:00:00 14,9 7,0 11 6 21 11 W 1018,6 19 0,0
18.10.2018 12:00:00 14,1 7,8 11 6 21 11 WSW 1018,6 18 0,0
18.10.2018 11:00:00 13,3 10,5 7 4 14 8 W 1018,5 17 0,0
18.10.2018 10:00:00 13,0 12,2 6 4 9 5 WSW 1018,2 4,4 0,0
18.10.2018 09:00:00 10,9 10,4 3 1 4 2 SW 1017,9 3,4 0,0
18.10.2018 08:00:00 10,3 9,7 0 0 7 4 N 1017,6 3,6 0,0
18.10.2018 07:00:00 10,1 9,6 3 1 7 4 WSW 1017,3 4,4 0,0
18.10.2018 06:00:00 9,8 9,3 0 0 4 2 N 1017,5 3,9 0,0
18.10.2018 05:00:00 9,3 8,8 0 0 4 2 N 1017,6 4,5 0,0
18.10.2018 04:00:00 8,4 8,0 0 0 4 2 N 1017,8 6 0,0
18.10.2018 03:00:00 7,6 7,2 2 1 4 2 W 1017,9 8 0,0
18.10.2018 02:00:00 7,3 6,9 0 0 4 2 N 1018,2 8 0,0
18.10.2018 01:00:00 6,4 6,1 2 1 4 2 SSW 1018,7 8 0,0
18.10.2018 00:00:00 6,1 5,7 0 0 4 2 N 1019,0 6 0,0
17.10.2018 23:00:00 6,9 6,5 3 1 4 2 SW 1019,0 7 0,0
17.10.2018 22:00:00 7,5 6,9 0 0 4 2 N 1019,3 5 0,0
17.10.2018 21:00:00 8,7 8,3 0 0 3 2 N 1019,2 6 0,0
17.10.2018 20:00:00 10,0 9,5 3 1 4 2 WSW 1019,0 1,4 0,0
17.10.2018 19:00:00 11,1 10,2 0 0 8 5 N 1018,9 8 0,0
17.10.2018 18:00:00 13,9 11,9 0 0 13 7 N 1018,6 12 0,0
17.10.2018 17:00:00 19,1 12,1 8 4 14 7 SE 1018,4 19 0,0
17.10.2018 16:00:00 21,1 11,1 9 5 14 7 S 1018,3 26 0,0
17.10.2018 15:00:00 20,3 13,0 7 4 11 6 ESE 1018,4 21 0,0
17.10.2018 14:00:00 20,3 13,3 4 2 11 6 SSW 1018,6 19 0,0
17.10.2018 13:00:00 17,6 12,5 7 4 10 5 S 1019,1 18 0,0
17.10.2018 12:00:00 14,8 12,3 4 2 16 9 SSW 1019,5 12 0,0
17.10.2018 11:00:00 12,0 11,5 7 4 17 9 SSW 1019,8 4,4 0,0
17.10.2018 10:00:00 11,1 10,8 12 6 17 9 SSW 1019,7 2,4 0,0
17.10.2018 09:00:00 8,5 8,4 0 0 3 1 N 1019,7 1,9 0,0
17.10.2018 08:00:00 6,9 6,6 0 0 3 1 N 1019,7 0,8 0,0
17.10.2018 07:00:00 6,2 5,9 0 0 3 2 N 1019,4 0,4 0,0
17.10.2018 06:00:00 5,2 4,9 0 0 4 2 N 1019,3 5 0,0
17.10.2018 05:00:00 4,2 3,9 0 0 4 2 N 1019,3 2,4 0,0
17.10.2018 04:00:00 4,6 4,3 3 2 4 2 SSW 1019,0 0,4 0,0
17.10.2018 03:00:00 4,8 4,5 2 1 4 2 SSW 1019,0 0,8 0,0
17.10.2018 02:00:00 5,3 5,0 2 1 4 2 SW 1019,1 0,2 0,0
17.10.2018 01:00:00 5,8 5,4 2 1 4 2 SSE 1019,1 6 0,0
17.10.2018 00:00:00 6,6 6,3 2 1 4 2 WNW 1019,2 1,2 0,0
16.10.2018 23:00:00 7,4 7,0 2 1 4 2 ENE 1019,4 0,8 0,0
16.10.2018 22:00:00 8,2 7,8 0 0 4 2 N 1019,4 1,3 0,0
16.10.2018 21:00:00 9,5 8,9 0 0 4 2 N 1019,4 2,5 0,0
16.10.2018 20:00:00 10,5 9,4 2 1 4 2 NNE 1019,1 8 0,0
16.10.2018 19:00:00 11,5 10,2 2 1 5 3 N 1018,8 9 0,0
16.10.2018 18:00:00 13,7 11,2 0 0 12 6 N 1018,4 16 0,0
16.10.2018 17:00:00 18,0 11,3 4 2 12 6 E 1018,0 17 0,0

tt = Température de l'air
td = dewpoint
ff = Vitesse du vent
fx = gusts
dd = Direction du vent
ppp = reduced air pressure
vv = visibility
rr = Quantités de précipitations

stations d'obs. à proximité